Time,TemperatureF,DewpointF,PressureIn,WindDirection,WindDirectionDegrees,WindSpeedMPH,WindSpeedGustMPH,Humidity,HourlyPrecipIn,Conditions,Clouds,dailyrainin,SoftwareType,DateUTC
2013-08-21 00:54:00,-999.0,-99.9,30.11,SW,232,2.0,3.0,-999,-99.99,,,-99.99,,2013-08-21 04:54:00,
2013-08-21 01:34:00,-999.0,-99.9,30.11,SSW,211,3.0,4.0,-999,-99.99,,,-99.99,,2013-08-21 05:34:00,
2013-08-21 01:43:00,-999.0,-99.9,30.11,SSW,200,2.0,3.0,-999,-99.99,,,-99.99,,2013-08-21 05:43:00,
2013-08-21 02:12:00,-999.0,-99.9,30.11,SW,217,2.0,3.0,-999,-99.99,,,-99.99,,2013-08-21 06:12:00,
2013-08-21 02:32:00,-999.0,-99.9,30.11,SSW,194,3.0,4.0,-999,-99.99,,,-99.99,,2013-08-21 06:32:00,
2013-08-21 02:42:00,-999.0,-99.9,30.11,SSW,202,3.0,5.0,-999,-99.99,,,-99.99,,2013-08-21 06:42:00,
2013-08-21 02:52:00,-999.0,-99.9,30.11,SSW,210,5.0,6.0,-999,-99.99,,,-99.99,,2013-08-21 06:52:00,
2013-08-21 03:02:00,-999.0,-99.9,30.11,SSW,210,5.0,6.0,-999,-99.99,,,-99.99,,2013-08-21 07:02:00,
2013-08-21 03:22:00,72.0,-99.9,30.11,North,-999,-999.0,-999.0,-999,-99.99,,,-99.99,,2013-08-21 07:22:00,
2013-08-21 03:42:00,-999.0,-99.9,30.11,SW,227,2.0,4.0,-999,-99.99,,,-99.99,,2013-08-21 07:42:00,
2013-08-21 04:03:00,-999.0,-99.9,30.12,SSW,211,3.0,5.0,-999,-99.99,,,-99.99,,2013-08-21 08:03:00,
2013-08-21 04:22:00,-999.0,-99.9,30.12,WSW,251,1.0,2.0,-999,-99.99,,,-99.99,,2013-08-21 08:22:00,
2013-08-21 04:43:00,-999.0,-99.9,30.12,SSW,211,2.0,4.0,-999,-99.99,,,-99.99,,2013-08-21 08:43:00,
2013-08-21 04:53:00,-999.0,-99.9,30.12,SW,215,2.0,2.0,-999,-99.99,,,-99.99,,2013-08-21 08:53:00,
2013-08-21 05:01:00,-999.0,-99.9,30.13,SSW,210,2.0,3.0,-999,-99.99,,,-99.99,,2013-08-21 09:01:00,
2013-08-21 05:22:00,-999.0,-99.9,30.13,South,189,3.0,4.0,-999,-99.99,,,-99.99,,2013-08-21 09:22:00,
2013-08-21 06:04:00,-999.0,-99.9,30.14,SSW,208,4.0,5.0,-999,-99.99,,,-99.99,,2013-08-21 10:04:00,
2013-08-21 06:23:00,-999.0,-99.9,30.14,SSW,207,3.0,5.0,-999,-99.99,,,-99.99,,2013-08-21 10:23:00,
2013-08-21 06:53:00,-999.0,-99.9,30.15,SW,216,3.0,4.0,-999,-99.99,,,-99.99,,2013-08-21 10:53:00,
2013-08-21 07:12:00,-999.0,-99.9,30.15,SSW,205,2.0,3.0,-999,-99.99,,,-99.99,,2013-08-21 11:12:00,
2013-08-21 07:22:00,-999.0,-99.9,30.15,SW,222,3.0,4.0,-999,-99.99,,,-99.99,,2013-08-21 11:22:00,
2013-08-21 07:53:00,-999.0,-99.9,30.16,South,189,0.0,2.0,-999,-99.99,,,-99.99,,2013-08-21 11:53:00,
2013-08-21 08:01:00,-999.0,-99.9,30.16,SW,227,0.0,1.0,-999,-99.99,,,-99.99,,2013-08-21 12:01:00,
2013-08-21 08:12:00,-999.0,-99.9,30.16,SSW,206,1.0,2.0,-999,-99.99,,,-99.99,,2013-08-21 12:12:00,
2013-08-21 08:32:00,-999.0,-99.9,30.16,SSW,193,1.0,2.0,-999,-99.99,,,-99.99,,2013-08-21 12:32:00,
2013-08-21 08:42:00,-999.0,-99.9,30.16,SW,233,0.0,1.0,-999,-99.99,,,-99.99,,2013-08-21 12:42:00,
2013-08-21 09:02:00,-999.0,-99.9,30.16,WNW,294,1.0,1.0,-999,-99.99,,,-99.99,,2013-08-21 13:02:00,
2013-08-21 09:12:00,-999.0,-99.9,30.16,West,281,0.0,1.0,-999,-99.99,,,-99.99,,2013-08-21 13:12:00,
2013-08-21 10:12:00,-999.0,-99.9,30.16,NW,324,2.0,3.0,-999,-99.99,,,-99.99,,2013-08-21 14:12:00,
2013-08-21 10:22:00,-999.0,-99.9,30.16,NW,308,3.0,3.0,-999,-99.99,,,-99.99,,2013-08-21 14:22:00,
2013-08-21 11:11:00,-999.0,-99.9,30.16,North,357,2.0,3.0,-999,-99.99,,,-99.99,,2013-08-21 15:11:00,
2013-08-21 11:43:00,-999.0,-99.9,30.16,NW,324,4.0,5.0,-999,-99.99,,,-99.99,,2013-08-21 15:43:00,
2013-08-21 11:55:00,-999.0,-99.9,30.15,NW,316,5.0,6.0,-999,-99.99,,,-99.99,,2013-08-21 15:55:00,
2013-08-21 12:04:00,-999.0,-99.9,30.15,NW,307,3.0,5.0,-999,-99.99,,,-99.99,,2013-08-21 16:04:00,
2013-08-21 12:13:00,-999.0,-99.9,30.15,WNW,291,4.0,6.0,-999,-99.99,,,-99.99,,2013-08-21 16:13:00,
2013-08-21 12:24:00,-999.0,-99.9,30.15,NW,319,5.0,6.0,-999,-99.99,,,-99.99,,2013-08-21 16:24:00,
2013-08-21 12:34:00,-999.0,-99.9,30.15,North,354,5.0,6.0,-999,-99.99,,,-99.99,,2013-08-21 16:34:00,
2013-08-21 13:13:00,-999.0,-99.9,30.14,North,353,4.0,5.0,-999,-99.99,,,-99.99,,2013-08-21 17:13:00,
2013-08-21 13:23:00,-999.0,-99.9,30.14,NNW,334,2.0,3.0,-999,-99.99,,,-99.99,,2013-08-21 17:23:00,
2013-08-21 13:53:00,-999.0,-99.9,30.13,WNW,285,4.0,9.0,-999,-99.99,,,-99.99,,2013-08-21 17:53:00,
2013-08-21 14:12:00,-999.0,-99.9,30.12,WSW,247,7.0,16.0,-999,-99.99,,,-99.99,,2013-08-21 18:12:00,
2013-08-21 14:42:00,-999.0,-99.9,30.11,WSW,249,2.0,5.0,-999,-99.99,,,-99.99,,2013-08-21 18:42:00,
2013-08-21 14:52:00,-999.0,-99.9,30.11,South,170,4.0,7.0,-999,-99.99,,,-99.99,,2013-08-21 18:52:00,
2013-08-21 15:12:00,-999.0,-99.9,30.10,SW,229,5.0,9.0,-999,-99.99,,,-99.99,,2013-08-21 19:12:00,
2013-08-21 15:32:00,-999.0,-99.9,30.09,WSW,237,3.0,7.0,-999,-99.99,,,-99.99,,2013-08-21 19:32:00,
2013-08-21 15:53:00,-999.0,-99.9,30.09,NW,311,4.0,8.0,-999,-99.99,,,-99.99,,2013-08-21 19:53:00,
2013-08-21 16:22:00,-999.0,-99.9,30.08,WSW,257,5.0,8.0,-999,-99.99,,,-99.99,,2013-08-21 20:22:00,
2013-08-21 16:43:00,-999.0,-99.9,30.08,WSW,257,5.0,9.0,-999,-99.99,,,-99.99,,2013-08-21 20:43:00,
2013-08-21 17:02:00,-999.0,-99.9,30.08,South,182,5.0,8.0,-999,-99.99,,,-99.99,,2013-08-21 21:02:00,
2013-08-21 17:22:00,-999.0,-99.9,30.07,SSE,161,7.0,10.0,-999,-99.99,,,-99.99,,2013-08-21 21:22:00,
2013-08-21 17:45:00,-999.0,-99.9,30.07,South,180,6.0,9.0,-999,-99.99,,,-99.99,,2013-08-21 21:45:00,
2013-08-21 18:24:00,-999.0,-99.9,30.06,SSE,149,7.0,10.0,-999,-99.99,,,-99.99,,2013-08-21 22:24:00,
2013-08-21 18:34:00,-999.0,-99.9,30.06,South,169,7.0,10.0,-999,-99.99,,,-99.99,,2013-08-21 22:34:00,
2013-08-21 18:44:00,-999.0,-99.9,30.06,South,170,5.0,8.0,-999,-99.99,,,-99.99,,2013-08-21 22:44:00,
2013-08-21 18:53:00,-999.0,-99.9,30.05,SW,222,1.0,3.0,-999,-99.99,,,-99.99,,2013-08-21 22:53:00,
2013-08-21 19:04:00,-999.0,-99.9,30.05,WNW,287,4.0,7.0,-999,-99.99,,,-99.99,,2013-08-21 23:04:00,
2013-08-21 19:43:00,-999.0,-99.9,30.05,WNW,299,5.0,7.0,-999,-99.99,,,-99.99,,2013-08-21 23:43:00,
2013-08-21 19:53:00,83.0,-99.9,30.05,North,-999,-999.0,-999.0,-999,-99.99,,,-99.99,,2013-08-21 23:53:00,
2013-08-21 20:03:00,-999.0,-99.9,30.05,West,276,3.0,3.0,-999,-99.99,,,-99.99,,2013-08-22 00:03:00,
2013-08-21 20:12:00,-999.0,-99.9,30.05,WNW,291,4.0,5.0,-999,-99.99,,,-99.99,,2013-08-22 00:12:00,
2013-08-21 20:32:00,-999.0,-99.9,30.05,SW,215,1.0,2.0,-999,-99.99,,,-99.99,,2013-08-22 00:32:00,
2013-08-21 21:12:00,-999.0,-99.9,30.05,South,184,2.0,3.0,-999,-99.99,,,-99.99,,2013-08-22 01:12:00,
2013-08-21 21:42:00,-999.0,-99.9,30.06,NE,51,1.0,1.0,-999,-99.99,,,-99.99,,2013-08-22 01:42:00,
2013-08-21 22:03:00,-999.0,-99.9,30.06,South,183,2.0,2.0,-999,-99.99,,,-99.99,,2013-08-22 02:03:00,
2013-08-21 22:12:00,-999.0,-99.9,30.06,South,185,4.0,5.0,-999,-99.99,,,-99.99,,2013-08-22 02:12:00,
2013-08-21 22:22:00,-999.0,-99.9,30.06,SSW,192,4.0,5.0,-999,-99.99,,,-99.99,,2013-08-22 02:22:00,
2013-08-21 22:32:00,-999.0,-99.9,30.06,South,191,4.0,6.0,-999,-99.99,,,-99.99,,2013-08-22 02:32:00,
2013-08-21 22:43:00,-999.0,-99.9,30.06,South,191,4.0,6.0,-999,-99.99,,,-99.99,,2013-08-22 02:43:00,
2013-08-21 22:53:00,-999.0,-99.9,30.06,South,178,3.0,4.0,-999,-99.99,,,-99.99,,2013-08-22 02:53:00,
2013-08-21 23:02:00,-999.0,-99.9,30.05,South,182,4.0,6.0,-999,-99.99,,,-99.99,,2013-08-22 03:02:00,
2013-08-21 23:12:00,-999.0,-99.9,30.05,South,180,4.0,6.0,-999,-99.99,,,-99.99,,2013-08-22 03:12:00,
2013-08-21 23:22:00,-999.0,-99.9,30.05,South,189,6.0,8.0,-999,-99.99,,,-99.99,,2013-08-22 03:22:00,
2013-08-21 23:35:00,-999.0,-99.9,30.05,South,186,6.0,9.0,-999,-99.99,,,-99.99,,2013-08-22 03:35:00,
2013-08-21 23:54:00,-999.0,-99.9,30.05,SSW,206,3.0,5.0,-999,-99.99,,,-99.99,,2013-08-22 03:54:00,